Location: *
(44.3526°S, 44.9014°W)
Time: 00:12:33
(UTC+00:00)

AQUARIUS - Pass Details

Date: 13 May 2025
Orbit: 636 x 637 km, 98.0° (Epoch: 14 June)

Event Time Altitude Azimuth Distance (km) Brightness Sun altitude
Exits shadow 21:19:02 17° 150° (SSE) 1,621 5.8 -16.9°
Maximum altitude 21:22:13 48° 81° (E) 850 4.3 -17.5°
Drops below altitude 10° 21:26:31 10° 6° (N) 2,035 6.7 -18.3°
Sets 21:28:46 0° 360° (N) 2,935 7.6 -18.7°
